Zurück zum Katalog

SL-14 DEB

AktivPO
NORAD 25454·DEBRIS·🇷🇺 Russia

Gestartet Aug 18, 1987 von Plesetsk Cosmodrome

Loading…

Nächste Überflüge (nächste 24 Stunden)

TLE

AktuellSource: Space-Track

Epoche: Sep 14, 2026, 04:59 UTC

1 25454U 87068CC  26257.20794387  .00076455  00000-0  57473-2 0  9996
2 25454  82.1367 342.2910 0017855 275.4952  84.4235 15.02080316655020

Verfolge SL-14 DEB in Echtzeit mit AllMySat

Download on the App Store